This demonstration page uses our WeatherBlox Daily Observations layout. Learn more.

Left ArrowRight Arrow

53.62937, 11.41316

Hourly Observations for January 31, 2018

Temp ( °F °C ) Dew Point ( °F °C ) Humidity (%) Winds ( mph kmh ) Pressure ( in mb ) Visibility ( mi km ) Precip ( " mm )
7:50 am 07:50 Cloudy with Drizzle 37 3 32 0 81 81 SSE 13 20 29.77 1008 30 48 N/A
8:20 am 08:20 Cloudy with Drizzle 37 3 34 1 87 87 SSE 13 20 29.77 1008 5 8 N/A
8:50 am 08:50 Cloudy with Drizzle 37 3 36 2 93 93 S 13 20 29.74 1007 2 3 N/A
9:20 am 09:20 Cloudy with Light Rain 37 3 36 2 93 93 SSE 13 20 29.71 1006 3 4 N/A
9:50 am 09:50 Cloudy with Light Rain 39 4 37 3 93 93 S 14 22 29.68 1005 3 5 N/A
10:20 am 10:20 Cloudy with Light Rain 41 5 39 4 93 93 S 16 26 29.65 1004 5 8 N/A
10:50 am 10:50 Cloudy with Light Rain 41 5 39 4 93 93 S 16 26 29.65 1004 30 48 N/A
11:20 am 11:20 Cloudy 43 6 41 5 93 93 S 15 24 29.62 1003 30 48 N/A
11:50 am 11:50 Cloudy 43 6 43 6 100 100 S 17 28 29.59 1002 6 9 N/A
12:20 pm 12:20 Cloudy 45 7 43 6 93 93 SSW 18 30 29.59 1002 30 48 N/A
12:50 pm 12:50 Cloudy 45 7 43 6 93 93 S 18 30 29.56 1001 30 48 N/A
1:20 pm 13:20 Cloudy 45 7 43 6 93 93 S 16 26 29.56 1001 30 48 N/A
1:50 pm 13:50 Cloudy with Drizzle 46 8 45 7 93 93 SSW 14 22 29.53 1000 30 48 N/A
2:20 pm 14:20 Cloudy 46 8 45 7 93 93 S 14 22 29.50 999 30 48 N/A
2:50 pm 14:50 Cloudy with Light Rain 45 7 43 6 93 93 W 17 28 29.50 999 3 5 N/A
3:20 pm 15:20 Mostly Cloudy with Light Rain 45 7 41 5 87 87 SSW 12 19 29.47 998 30 48 N/A
3:50 pm 15:50 Mostly Cloudy with Light Rain 45 7 41 5 87 87 SSW 13 20 29.47 998 30 48 N/A
4:20 pm 16:20 Mostly Cloudy with Light Rain 45 7 41 5 87 87 SSW 14 22 29.44 997 30 48 N/A
4:50 pm 16:50 Cloudy with Light Rain 45 7 41 5 87 87 SSW 16 26 29.44 997 30 48 N/A
5:20 pm 17:20 Cloudy with Light Rain 45 7 43 6 93 93 SSW 13 20 29.44 997 30 48 N/A
5:50 pm 17:50 Cloudy with Light Rain 43 6 43 6 100 100 SW 15 24 29.44 997 30 48 N/A

Powered by AerisWeather